QPF
0.05 0.05 0.04 0.03 0.03 0.03 0.03 0.03 0.03 0.02 0.01 0.02 0.02 0.01 0.01 0.02 0.02 0.02 0.02 0.04 0.05 0.04 0.03 0.03 0.03 0.04 0.05 0.08 0.11 0.13 0.14 0.14 0.13 0.11 0.09 0.08 0.08 0.08
0.04 0.04 0.04 0.04 0.04 0.04 0.04 0.03 0.03 0.02 0.02 0.02 0.01 0.01 0.01 0.02 0.03 0.03 0.03 0.03 0.03 0.04 0.05 0.05 0.06 0.06 0.07 0.09 0.10 0.09 0.09 0.09 0.09 0.08 0.07 0.06 0.05 0.05
0.05 0.04 0.04 0.04 0.04 0.04 0.04 0.04 0.03 0.03 0.02 0.01 0.01 0.01 0.02 0.03 0.03 0.03 0.03 0.03 0.03 0.03 0.04 0.05 0.08 0.09 0.09 0.08 0.08 0.07 0.05 0.05 0.05 0.05 0.05 0.04 0.04 0.05
0.05 0.05 0.05 0.05 0.06 0.06 0.06 0.05 0.05 0.05 0.04 0.03 0.03 0.03 0.03 0.03 0.02 0.02 0.03 0.03 0.03 0.03 0.03 0.05 0.06 0.06 0.06 0.05 0.04 0.04 0.03 0.03 0.03 0.03 0.03 0.03 0.03 0.03
0.05 0.06 0.07 0.07 0.07 0.08 0.09 0.09 0.09 0.08 0.08 0.06 0.05 0.04 0.03 0.02 0.02 0.02 0.03 0.03 0.03 0.04 0.05 0.04 0.05 0.04 0.04 0.04 0.05 0.05 0.04 0.03 0.03 0.03 0.03 0.03 0.03 0.03
0.04 0.03 0.04 0.05 0.05 0.06 0.07 0.07 0.08 0.07 0.08 0.08 0.08 0.06 0.05 0.04 0.03 0.03 0.03 0.03 0.03 0.05 0.06 0.06 0.05 0.04 0.03 0.03 0.04 0.04 0.04 0.04 0.04 0.03 0.03 0.03 0.03 0.04
0.05 0.06 0.06 0.06 0.07 0.07 0.06 0.05 0.06 0.07 0.08 0.08 0.08 0.07 0.06 0.06 0.05 0.05 0.05 0.06 0.05 0.05 0.06 0.04 0.04 0.03 0.02 0.02 0.02 0.01 0.01 0.01 0.02 0.03 0.04 0.04 0.04 0.04
0.05 0.07 0.10 0.09 0.09 0.08 0.06 0.05 0.05 0.04 0.05 0.05 0.05 0.06 0.08 0.09 0.08 0.07 0.07 0.06 0.05 0.03 0.03 0.03 0.02 0.02 0.02 0.02 0.02 0.02 0.01 0.01 0.01 0.01 0.02 0.03 0.04 0.05
0.04 0.04 0.07 0.09 0.08 0.06 0.06 0.05 0.04 0.05 0.05 0.05 0.06 0.06 0.07 0.07 0.07 0.07 0.06 0.04 0.03 0.02 0.02 0.03 0.02 0.01 0.02 0.02 0.03 0.02 0.01 0.01 0.01 0.01 0.02 0.02 0.03 0.04
0.03 0.03 0.04 0.05 0.06 0.07 0.06 0.04 0.04 0.06 0.07 0.06 0.06 0.06 0.06 0.06 0.06 0.05 0.04 0.03 0.02 0.02 0.02 0.02 0.02 0.01 0.01 0.02 0.02 0.02 0.02 0.02 0.02 0.02 0.02 0.02 0.03 0.03
0.05 0.05 0.04 0.03 0.05 0.06 0.05 0.04 0.04 0.05 0.07 0.06 0.06 0.06 0.06 0.05 0.04 0.03 0.03 0.02 0.03 0.03 0.03 0.03 0.02 0.01 0.01 0.01 0.02 0.04 0.04 0.03 0.03 0.02 0.02 0.02 0.03 0.04
0.09 0.08 0.06 0.04 0.05 0.05 0.04 0.05 0.05 0.07 0.08 0.09 0.09 0.07 0.06 0.05 0.05 0.04 0.05 0.05 0.04 0.03 0.03 0.03 0.02 0.02 0.02 0.01 0.02 0.02 0.02 0.02 0.02 0.02 0.03 0.03 0.04 0.04
0.08 0.08 0.08 0.08 0.06 0.04 0.03 0.03 0.04 0.04 0.04 0.04 0.05 0.05 0.04 0.04 0.04 0.04 0.04 0.04 0.03 0.03 0.02 0.02 0.02 0.01 0.02 0.01 0.01 0.01 0.01 0.01 0.01 0.02 0.02 0.03 0.03 0.03
0.07 0.07 0.06 0.05 0.03 0.02 0.01 0.01 0.01 0.01 0.01 0.01 0.02 0.02 0.02 0.02 0.02 0.02 0.01 0.01 0.01 0.01 0.01 0.01 0.02 0.02 0.03 0.03 0.02 0.01 0.01 0.01 0.01 0.01 0.02 0.03 0.03 0.03
0.04 0.05 0.05 0.04 0.03 0.01 0.01 0.01 0.01 0.00 0.00 0.01 0.01 0.01 0.01 0.01 0.01 0.01 0.01 0.00 0.01 0.01 0.01 0.01 0.01 0.02 0.02 0.03 0.03 0.03 0.03 0.02 0.02 0.01 0.02 0.02 0.02 0.02
0.06 0.06 0.06 0.06 0.04 0.02 0.02 0.01 0.01 0.01 0.01 0.01 0.01 0.01 0.01 0.01 0.01 0.00 0.01 0.01 0.01 0.01 0.01 0.01 0.01 0.01 0.01 0.01 0.02 0.02 0.03 0.04 0.04 0.03 0.03 0.03 0.02 0.02
0.03 0.03 0.04 0.04 0.03 0.02 0.02 0.02 0.01 0.01 0.01 0.01 0.01 0.01 0.01 0.01 0.01 0.01 0.01 0.01 0.02 0.02 0.02 0.01 0.01 0.01 0.01 0.01 0.01 0.02 0.02 0.02 0.03 0.04 0.05 0.04 0.03 0.02
0.02 0.01 0.01 0.01 0.01 0.01 0.01 0.01 0.01 0.01 0.01 0.01 0.01 0.00 0.01 0.01 0.01 0.01 0.01 0.01 0.01 0.02 0.02 0.01 0.01 0.01 0.02 0.03 0.03 0.03 0.04 0.04 0.04 0.04 0.04 0.03 0.03 0.02
0.01 0.01 0.00 0.00 0.00 0.00 0.00 0.01 0.01 0.01 0.01 0.01 0.01 0.01 0.01 0.01 0.01 0.01 0.01 0.01 0.02 0.02 0.02 0.02 0.02 0.02 0.03 0.04 0.04 0.03 0.04 0.04 0.04 0.04 0.04 0.03 0.03 0.03
0.00 0.00 0.00 0.00 0.00 0.00 0.00 0.00 0.00 0.01 0.01 0.01 0.01 0.01 0.01 0.01 0.01 0.01 0.01 0.01 0.01 0.01 0.01 0.01 0.01 0.02 0.03 0.03 0.03 0.02 0.02 0.03 0.04 0.04 0.04 0.04 0.04 0.04
0.01 0.01 0.01 0.00 0.00 0.00 0.00 0.00 0.00 0.00 0.00 0.00 0.00 0.00 0.01 0.01 0.01 0.01 0.01 0.01 0.01 0.00 0.00 0.00 0.00 0.01 0.01 0.01 0.01 0.01 0.01 0.01 0.02 0.03 0.04 0.04 0.03 0.03
0.01 0.01 0.01 0.01 0.01 0.01 0.01 0.01 0.00 0.00 0.00 0.00 0.00 0.00 0.01 0.01 0.01 0.01 0.01 0.01 0.01 0.01 0.01 0.01 0.01 0.01 0.01 0.01 0.01 0.01 0.01 0.01 0.01 0.01 0.02 0.02 0.03 0.03
0.01 0.01 0.01 0.01 0.01 0.01 0.01 0.01 0.01 0.01 0.01 0.01 0.01 0.01 0.01 0.01 0.01 0.01 0.01 0.01 0.01 0.01 0.01 0.02 0.02 0.02 0.01 0.01 0.01 0.02 0.02 0.01 0.01 0.01 0.02 0.02 0.02 0.02
MSLP
1017.78 1018.04 1018.32 1018.60 1018.85 1019.04 1019.14 1019.14 1019.04 1018.86 1018.61 1018.32 1018.00 1017.66 1017.31 1016.95 1016.58 1016.21 1015.82 1015.43 1015.05 1014.69 1014.35 1014.04 1013.76 1013.52 1013.31 1013.14 1013.00 1012.89 1012.83 1012.81 1012.84 1012.92 1013.03 1013.18 1013.33 1013.48
1017.60 1017.83 1018.09 1018.34 1018.58 1018.77 1018.89 1018.94 1018.90 1018.77 1018.58 1018.33 1018.04 1017.72 1017.37 1017.00 1016.62 1016.22 1015.81 1015.40 1015.00 1014.62 1014.27 1013.95 1013.66 1013.39 1013.16 1012.94 1012.75 1012.59 1012.46 1012.36 1012.31 1012.29 1012.30 1012.34 1012.40 1012.46
1017.49 1017.69 1017.89 1018.10 1018.30 1018.48 1018.61 1018.68 1018.68 1018.61 1018.48 1018.28 1018.04 1017.74 1017.42 1017.06 1016.67 1016.27 1015.85 1015.44 1015.04 1014.65 1014.30 1013.97 1013.67 1013.39 1013.14 1012.89 1012.66 1012.45 1012.26 1012.09 1011.95 1011.84 1011.76 1011.70 1011.67 1011.67
1017.44 1017.58 1017.72 1017.87 1018.03 1018.18 1018.30 1018.38 1018.42 1018.39 1018.32 1018.18 1017.99 1017.74 1017.45 1017.12 1016.75 1016.36 1015.95 1015.54 1015.14 1014.76 1014.41 1014.08 1013.78 1013.50 1013.23 1012.96 1012.70 1012.45 1012.20 1011.97 1011.76 1011.58 1011.42 1011.29 1011.19 1011.13
1017.36 1017.45 1017.53 1017.63 1017.74 1017.85 1017.95 1018.04 1018.10 1018.12 1018.10 1018.02 1017.88 1017.69 1017.45 1017.15 1016.81 1016.44 1016.06 1015.66 1015.28 1014.91 1014.57 1014.25 1013.95 1013.66 1013.38 1013.10 1012.82 1012.54 1012.26 1011.99 1011.73 1011.49 1011.28 1011.10 1010.97 1010.90
1017.20 1017.23 1017.26 1017.31 1017.38 1017.46 1017.56 1017.65 1017.73 1017.78 1017.80 1017.77 1017.69 1017.55 1017.36 1017.11 1016.81 1016.48 1016.12 1015.75 1015.39 1015.04 1014.71 1014.40 1014.11 1013.83 1013.56 1013.28 1012.99 1012.70 1012.40 1012.11 1011.82 1011.56 1011.33 1011.15 1011.02 1010.96
1016.86 1016.85 1016.85 1016.87 1016.92 1016.98 1017.07 1017.17 1017.26 1017.34 1017.40 1017.41 1017.38 1017.29 1017.14 1016.94 1016.69 1016.40 1016.09 1015.75 1015.42 1015.10 1014.80 1014.52 1014.25 1013.98 1013.72 1013.46 1013.18 1012.89 1012.60 1012.31 1012.03 1011.78 1011.57 1011.40 1011.31 1011.30
1016.30 1016.28 1016.27 1016.28 1016.32 1016.39 1016.48 1016.58 1016.70 1016.79 1016.87 1016.92 1016.93 1016.88 1016.78 1016.63 1016.43 1016.19 1015.92 1015.64 1015.36 1015.08 1014.82 1014.57 1014.33 1014.10 1013.86 1013.63 1013.38 1013.12 1012.86 1012.60 1012.35 1012.13 1011.96 1011.85 1011.81 1011.87
1015.55 1015.52 1015.52 1015.55 1015.60 1015.69 1015.79 1015.91 1016.03 1016.15 1016.25 1016.32 1016.35 1016.34 1016.29 1016.19 1016.04 1015.86 1015.65 1015.43 1015.20 1014.97 1014.76 1014.56 1014.37 1014.18 1013.99 1013.80 1013.60 1013.38 1013.17 1012.96 1012.76 1012.60 1012.49 1012.45 1012.49 1012.62
1014.65 1014.64 1014.66 1014.72 1014.80 1014.91 1015.04 1015.18 1015.31 1015.44 1015.55 1015.64 1015.70 1015.72 1015.71 1015.66 1015.57 1015.45 1015.31 1015.15 1014.99 1014.82 1014.67 1014.53 1014.40 1014.26 1014.13 1014.00 1013.85 1013.70 1013.55 1013.40 1013.27 1013.18 1013.14 1013.17 1013.28 1013.49
1013.73 1013.74 1013.79 1013.88 1014.00 1014.14 1014.28 1014.43 1014.58 1014.72 1014.84 1014.94 1015.02 1015.08 1015.11 1015.11 1015.08 1015.03 1014.96 1014.87 1014.78 1014.69 1014.60 1014.52 1014.45 1014.38 1014.31 1014.24 1014.16 1014.07 1013.99 1013.92 1013.86 1013.84 1013.87 1013.97 1014.14 1014.40
1012.90 1012.93 1013.00 1013.12 1013.26 1013.42 1013.58 1013.74 1013.89 1014.03 1014.16 1014.27 1014.38 1014.47 1014.54 1014.60 1014.63 1014.65 1014.65 1014.63 1014.61 1014.58 1014.56 1014.54 1014.52 1014.52 1014.51 1014.50 1014.50 1014.48 1014.47 1014.47 1014.49 1014.54 1014.63 1014.78 1015.00 1015.29
1012.26 1012.29 1012.38 1012.50 1012.65 1012.81 1012.97 1013.12 1013.26 1013.40 1013.53 1013.66 1013.79 1013.91 1014.03 1014.14 1014.23 1014.32 1014.38 1014.43 1014.47 1014.50 1014.53 1014.57 1014.61 1014.65 1014.71 1014.76 1014.82 1014.88 1014.94 1015.01 1015.09 1015.20 1015.34 1015.54 1015.78 1016.09
1011.87 1011.89 1011.96 1012.06 1012.19 1012.33 1012.46 1012.59 1012.71 1012.84 1012.96 1013.10 1013.24 1013.40 1013.56 1013.72 1013.87 1014.01 1014.13 1014.23 1014.32 1014.40 1014.47 1014.55 1014.63 1014.73 1014.83 1014.95 1015.07 1015.19 1015.32 1015.46 1015.60 1015.77 1015.95 1016.17 1016.44 1016.75
1011.73 1011.71 1011.74 1011.80 1011.88 1011.97 1012.06 1012.14 1012.23 1012.32 1012.43 1012.56 1012.72 1012.89 1013.09 1013.28 1013.48 1013.66 1013.82 1013.97 1014.09 1014.20 1014.31 1014.42 1014.54 1014.67 1014.82 1014.99 1015.17 1015.36 1015.55 1015.75 1015.95 1016.16 1016.39 1016.63 1016.90 1017.20
1011.80 1011.73 1011.70 1011.70 1011.71 1011.72 1011.74 1011.76 1011.79 1011.84 1011.92 1012.03 1012.18 1012.37 1012.57 1012.79 1013.01 1013.22 1013.41 1013.58 1013.72 1013.86 1013.98 1014.12 1014.26 1014.43 1014.62 1014.84 1015.07 1015.32 1015.58 1015.84 1016.09 1016.35 1016.61 1016.87 1017.14 1017.43
1012.03 1011.90 1011.80 1011.72 1011.65 1011.58 1011.51 1011.46 1011.42 1011.41 1011.44 1011.51 1011.64 1011.81 1012.01 1012.23 1012.45 1012.67 1012.86 1013.04 1013.20 1013.34 1013.48 1013.63 1013.81 1014.01 1014.24 1014.50 1014.78 1015.09 1015.40 1015.71 1016.02 1016.31 1016.60 1016.87 1017.15 1017.43
1012.37 1012.19 1012.02 1011.86 1011.71 1011.55 1011.40 1011.25 1011.13 1011.05 1011.02 1011.04 1011.12 1011.25 1011.43 1011.62 1011.83 1012.03 1012.22 1012.40 1012.55 1012.70 1012.85 1013.02 1013.22 1013.44 1013.71 1014.01 1014.34 1014.69 1015.05 1015.40 1015.74 1016.07 1016.38 1016.67 1016.94 1017.21
1012.79 1012.57 1012.35 1012.13 1011.90 1011.67 1011.43 1011.20 1011.00 1010.84 1010.74 1010.69 1010.71 1010.79 1010.92 1011.07 1011.25 1011.42 1011.59 1011.75 1011.90 1012.05 1012.21 1012.39 1012.60 1012.85 1013.15 1013.48 1013.84 1014.22 1014.61 1014.99 1015.35 1015.69 1016.01 1016.30 1016.57 1016.83
1013.28 1013.04 1012.79 1012.53 1012.25 1011.96 1011.66 1011.36 1011.09 1010.85 1010.67 1010.56 1010.51 1010.52 1010.58 1010.68 1010.81 1010.94 1011.08 1011.22 1011.36 1011.50 1011.67 1011.86 1012.09 1012.36 1012.67 1013.01 1013.39 1013.78 1014.17 1014.55 1014.91 1015.24 1015.55 1015.82 1016.08 1016.33
1013.83 1013.59 1013.34 1013.06 1012.76 1012.44 1012.09 1011.75 1011.42 1011.12 1010.88 1010.69 1010.57 1010.51 1010.51 1010.55 1010.63 1010.72 1010.82 1010.93 1011.06 1011.19 1011.35 1011.55 1011.78 1012.05 1012.35 1012.69 1013.06 1013.43 1013.80 1014.15 1014.48 1014.78 1015.05 1015.30 1015.53 1015.75
1014.42 1014.21 1013.98 1013.71 1013.41 1013.08 1012.72 1012.35 1011.98 1011.65 1011.35 1011.11 1010.93 1010.81 1010.74 1010.73 1010.74 1010.79 1010.86 1010.94 1011.04 1011.17 1011.31 1011.50 1011.71 1011.96 1012.25 1012.55 1012.88 1013.20 1013.52 1013.82 1014.09 1014.34 1014.56 1014.76 1014.94 1015.13
1015.02 1014.84 1014.64 1014.41 1014.13 1013.81 1013.46 1013.09 1012.71 1012.35 1012.03 1011.75 1011.52 1011.35 1011.24 1011.17 1011.14 1011.14 1011.17 1011.22 1011.30 1011.39 1011.52 1011.67 1011.86 1012.07 1012.30 1012.56 1012.82 1013.08 1013.32 1013.54 1013.75 1013.92 1014.08 1014.22 1014.36 1014.50
Thickness
5724 5723 5722 5721 5720 5718 5717 5715 5710 5705 5704 5705 5704 5704 5703 5702 5701 5701 5700 5700 5699 5698 5697 5696 5695 5693 5691 5690 5688 5687 5685 5683 5681 5680 5678 5676 5674 5672
5721 5720 5719 5718 5716 5715 5714 5712 5710 5706 5702 5702 5700 5698 5697 5696 5695 5695 5694 5694 5693 5693 5692 5690 5689 5688 5686 5684 5682 5681 5679 5677 5675 5674 5672 5670 5669 5667
5718 5717 5716 5715 5713 5712 5710 5708 5706 5704 5699 5696 5694 5693 5691 5689 5689 5689 5688 5688 5687 5686 5686 5684 5683 5681 5679 5678 5676 5675 5673 5671 5669 5667 5665 5664 5662 5661
5715 5714 5712 5711 5709 5707 5705 5703 5701 5700 5697 5692 5689 5687 5684 5683 5682 5682 5681 5681 5680 5679 5678 5677 5675 5674 5672 5671 5669 5668 5666 5664 5662 5660 5658 5657 5655 5654
5712 5711 5709 5707 5705 5703 5701 5699 5697 5696 5693 5689 5685 5681 5678 5676 5675 5674 5673 5672 5672 5671 5670 5668 5667 5666 5664 5663 5662 5660 5659 5657 5655 5653 5651 5649 5647 5646
5708 5706 5705 5703 5701 5699 5697 5695 5692 5690 5687 5684 5680 5676 5673 5670 5669 5667 5665 5664 5663 5662 5661 5660 5658 5657 5656 5655 5654 5652 5651 5649 5647 5646 5643 5641 5640 5638
5702 5701 5700 5698 5697 5695 5693 5691 5688 5685 5681 5677 5674 5670 5667 5665 5663 5661 5659 5657 5655 5653 5653 5651 5650 5649 5647 5646 5645 5643 5642 5640 5639 5637 5635 5633 5632 5630
5696 5695 5694 5693 5691 5689 5688 5686 5684 5681 5677 5673 5669 5666 5663 5661 5657 5655 5652 5650 5648 5645 5644 5643 5641 5640 5639 5637 5636 5634 5633 5631 5630 5628 5626 5624 5623 5621
5692 5690 5689 5687 5685 5683 5681 5679 5677 5674 5673 5669 5665 5662 5659 5656 5652 5649 5646 5644 5641 5638 5636 5635 5633 5632 5630 5629 5627 5625 5624 5622 5620 5618 5616 5614 5613 5611
5686 5684 5682 5681 5679 5677 5674 5671 5669 5666 5664 5663 5660 5657 5654 5650 5647 5644 5640 5636 5633 5630 5628 5627 5625 5623 5622 5621 5619 5617 5615 5612 5610 5608 5606 5605 5603 5602
5679 5677 5676 5674 5672 5670 5668 5664 5661 5658 5656 5654 5652 5649 5646 5643 5639 5636 5632 5629 5626 5623 5620 5618 5617 5615 5614 5613 5610 5608 5605 5603 5601 5599 5597 5595 5593 5591
5672 5669 5667 5665 5663 5661 5659 5657 5653 5650 5648 5645 5643 5640 5637 5634 5631 5629 5626 5622 5619 5616 5613 5610 5609 5607 5606 5605 5601 5599 5596 5594 5591 5589 5587 5585 5583 5580
5665 5661 5659 5657 5655 5653 5651 5648 5645 5642 5639 5637 5634 5631 5628 5625 5622 5619 5617 5615 5613 5610 5606 5602 5600 5597 5596 5595 5593 5589 5586 5584 5581 5579 5577 5575 5573 5570
5658 5654 5651 5649 5647 5645 5642 5639 5637 5634 5631 5628 5625 5622 5619 5617 5614 5611 5609 5606 5604 5602 5599 5595 5592 5589 5587 5585 5583 5580 5577 5574 5572 5569 5567 5565 5563 5561
5650 5647 5643 5640 5638 5635 5633 5630 5628 5625 5622 5619 5617 5614 5611 5608 5605 5603 5600 5597 5595 5592 5589 5586 5584 5580 5578 5576 5573 5570 5568 5565 5562 5560 5558 5556 5554 5551
5642 5638 5635 5632 5628 5625 5623 5620 5618 5615 5613 5610 5608 5604 5602 5599 5596 5593 5591 5588 5586 5583 5580 5577 5574 5571 5569 5566 5563 5561 5558 5556 5554 5551 5548 5546 5544 5542
5633 5630 5627 5623 5620 5617 5614 5611 5608 5606 5603 5600 5597 5595 5592 5589 5586 5583 5580 5578 5576 5574 5571 5567 5564 5561 5559 5556 5554 5553 5550 5547 5545 5542 5539 5538 5537 5534
5625 5622 5618 5615 5612 5609 5606 5603 5600 5597 5594 5591 5588 5585 5582 5579 5576 5573 5570 5567 5565 5563 5561 5557 5554 5552 5550 5547 5544 5543 5541 5539 5536 5533 5531 5530 5529 5527
5616 5613 5610 5607 5604 5601 5598 5595 5592 5589 5585 5582 5579 5576 5573 5570 5567 5563 5560 5557 5555 5553 5550 5547 5544 5542 5542 5542 5540 5534 5532 5531 5528 5525 5523 5521 5520 5519
5608 5605 5602 5599 5596 5593 5590 5587 5584 5580 5576 5573 5570 5567 5564 5561 5558 5555 5552 5549 5546 5543 5541 5538 5535 5533 5532 5531 5529 5526 5523 5521 5519 5518 5515 5512 5510 5508
5600 5597 5594 5591 5588 5585 5582 5578 5575 5571 5568 5564 5561 5558 5554 5551 5549 5547 5544 5540 5537 5535 5533 5531 5529 5525 5522 5520 5519 5519 5516 5513 5511 5509 5507 5505 5503 5501
5592 5589 5586 5582 5579 5576 5573 5569 5566 5562 5559 5555 5552 5549 5546 5543 5541 5538 5536 5533 5530 5528 5526 5524 5520 5517 5514 5513 5512 5511 5508 5505 5502 5500 5498 5497 5495 5495
5583 5580 5577 5573 5569 5566 5563 5559 5556 5553 5550 5547 5544 5541 5537 5535 5532 5530 5528 5525 5523 5520 5518 5516 5513 5509 5507 5505 5503 5502 5500 5497 5495 5493 5491 5489 5487 5485